• In Österreich
  • Länderverzeichnis
  • Für 7 Tage
  • Wassertemperatur
  • Satellitenkarten
  • Wetterkarte
  • News
  • Widgets
  • user-avatar
    Anmelden

    Stündliche Wetter Bjala

    Heute, 11 Dezember, Montag

    Zeit Temperatur Niederschläge Wind Luftdruck Luftfeuchtigkeit
    00:00 -1°C° 0 mm 4 m/S 754 mmHg 63%
    01:00 -1°C° 0 mm 4 m/S 754 mmHg 62%
    02:00 -1°C° 0 mm 4 m/S 754 mmHg 61%
    03:00 -1°C° 0 mm 4 m/S 754 mmHg 59%
    04:00 0°C° 0 mm 5 m/S 754 mmHg 57%
    05:00 0°C° 0 mm 5 m/S 753 mmHg 55%
    06:00 0°C° 0 mm 5 m/S 754 mmHg 56%
    07:00 -1°C° 0 mm 6 m/S 754 mmHg 58%
    08:00 -1°C° 0 mm 6 m/S 754 mmHg 59%
    09:00 +2°C° 0 mm 6 m/S 754 mmHg 56%
    10:00 +4°C° 0 mm 6 m/S 754 mmHg 53%
    11:00 +6°C° 0 mm 7 m/S 755 mmHg 50%
    12:00 +6°C° 0 mm 7 m/S 754 mmHg 51%
    13:00 +8°C° 0 mm 6 m/S 754 mmHg 53%
    14:00 +9°C° 0 mm 6 m/S 754 mmHg 54%
    15:00 +9°C° 0 mm 6 m/S 754 mmHg 61%
    16:00 +8°C° 0 mm 5 m/S 754 mmHg 68%
    17:00 +7°C° 0 mm 5 m/S 754 mmHg 75%
    18:00 +7°C° 0 mm 5 m/S 754 mmHg 79%
    19:00 +7°C° 0 mm 5 m/S 754 mmHg 83%
    20:00 +7°C° 0 mm 5 m/S 754 mmHg 87%
    21:00 +7°C° 0 mm 5 m/S 754 mmHg 88%
    22:00 +7°C° 0 mm 5 m/S 754 mmHg 89%
    23:00 +7°C° 0 mm 6 m/S 754 mmHg 91%

    Morgen, 12 Dezember, Dienstag

    Zeit Temperatur Niederschläge Wind Luftdruck Luftfeuchtigkeit
    00:00 +7°C° 0 mm 5 m/S 754 mmHg 91%
    01:00 +6°C° 0 mm 5 m/S 754 mmHg 92%
    02:00 +6°C° 0 mm 5 m/S 754 mmHg 92%
    03:00 +6°C° 0 mm 5 m/S 754 mmHg 92%
    04:00 +6°C° 0 mm 5 m/S 754 mmHg 92%
    05:00 +5°C° 0 mm 5 m/S 754 mmHg 91%
    06:00 +5°C° 0 mm 5 m/S 754 mmHg 91%
    07:00 +5°C° 0 mm 5 m/S 755 mmHg 91%
    08:00 +5°C° 0 mm 4 m/S 755 mmHg 91%
    09:00 +6°C° 0 mm 4 m/S 755 mmHg 83%
    10:00 +8°C° 0 mm 4 m/S 755 mmHg 75%
    11:00 +10°C° 0 mm 4 m/S 755 mmHg 67%
    12:00 +11°C° 0 mm 4 m/S 755 mmHg 63%
    13:00 +12°C° 0 mm 4 m/S 755 mmHg 59%
    14:00 +12°C° 0 mm 4 m/S 754 mmHg 55%
    15:00 +11°C° 0 mm 4 m/S 754 mmHg 59%
    16:00 +10°C° 0 mm 3 m/S 755 mmHg 63%
    17:00 +9°C° 0 mm 3 m/S 755 mmHg 67%
    18:00 +9°C° 0 mm 3 m/S 755 mmHg 66%
    19:00 +8°C° 0 mm 3 m/S 755 mmHg 66%
    20:00 +8°C° 0 mm 2 m/S 755 mmHg 65%
    21:00 +8°C° 0 mm 2 m/S 755 mmHg 64%
    22:00 +8°C° 0 mm 2 m/S 755 mmHg 63%
    23:00 +7°C° 0 mm 2 m/S 755 mmHg 62%

    übermorgen, 13 Dezember, Mittwoch

    Zeit Temperatur Niederschläge Wind Luftdruck Luftfeuchtigkeit
    00:00 +7°C° 0 mm 2 m/S 755 mmHg 61%
    01:00 +7°C° 0 mm 2 m/S 755 mmHg 60%
    02:00 +7°C° 0 mm 2 m/S 755 mmHg 60%
    03:00 +7°C° 0 mm 2 m/S 755 mmHg 59%
    04:00 +7°C° 0 mm 2 m/S 754 mmHg 59%
    05:00 +6°C° 0 mm 2 m/S 754 mmHg 59%
    06:00 +6°C° 0 mm 2 m/S 754 mmHg 59%
    07:00 +6°C° 0 mm 2 m/S 755 mmHg 59%
    08:00 +6°C° 0 mm 2 m/S 755 mmHg 59%
    09:00 +8°C° 0 mm 2 m/S 755 mmHg 56%
    10:00 +10°C° 0 mm 2 m/S 755 mmHg 52%
    11:00 +12°C° 0 mm 2 m/S 755 mmHg 48%
    12:00 +13°C° 0 mm 2 m/S 754 mmHg 47%
    13:00 +14°C° 0 mm 2 m/S 754 mmHg 46%
    14:00 +15°C° 0 mm 2 m/S 754 mmHg 45%
    15:00 +13°C° 0 mm 2 m/S 754 mmHg 50%
    16:00 +12°C° 0 mm 2 m/S 753 mmHg 56%
    17:00 +10°C° 0 mm 2 m/S 753 mmHg 61%
    18:00 +10°C° 0 mm 2 m/S 753 mmHg 62%
    19:00 +9°C° 0 mm 2 m/S 753 mmHg 64%
    20:00 +9°C° 0 mm 2 m/S 753 mmHg 65%
    21:00 +9°C° 0 mm 2 m/S 753 mmHg 66%
    22:00 +9°C° 0 mm 2 m/S 752 mmHg 66%
    23:00 +9°C° 0 mm 2 m/S 752 mmHg 67%

    14 Dezember, Donnerstag

    Zeit Temperatur Niederschläge Wind Luftdruck Luftfeuchtigkeit
    00:00 +9°C° 0 mm 2 m/S 751 mmHg 68%
    01:00 +9°C° 0 mm 2 m/S 751 mmHg 70%
    02:00 +8°C° 0 mm 2 m/S 751 mmHg 72%
    03:00 +8°C° 0 mm 2 m/S 751 mmHg 73%
    04:00 +8°C° 0 mm 2 m/S 751 mmHg 74%
    05:00 +8°C° 0 mm 2 m/S 750 mmHg 75%
    06:00 +8°C° 0 mm 3 m/S 751 mmHg 75%
    07:00 +8°C° 0 mm 3 m/S 751 mmHg 75%
    08:00 +8°C° 0 mm 3 m/S 751 mmHg 75%
    09:00 +8°C° 0,1 mm 3 m/S 751 mmHg 75%
    10:00 +9°C° 0,1 mm 3 m/S 751 mmHg 76%
    11:00 +9°C° 0,1 mm 3 m/S 752 mmHg 76%
    12:00 +10°C° 0 mm 3 m/S 751 mmHg 73%
    13:00 +11°C° 0 mm 3 m/S 751 mmHg 69%
    14:00 +12°C° 0 mm 3 m/S 751 mmHg 66%
    15:00 +11°C° 0 mm 3 m/S 751 mmHg 68%
    16:00 +10°C° 0 mm 2 m/S 751 mmHg 70%
    17:00 +9°C° 0 mm 2 m/S 752 mmHg 73%
    18:00 +8°C° 0 mm 2 m/S 752 mmHg 74%
    19:00 +8°C° 0 mm 2 m/S 752 mmHg 76%
    20:00 +8°C° 0 mm 1 m/S 752 mmHg 77%
    21:00 +7°C° 0 mm 2 m/S 752 mmHg 77%
    22:00 +7°C° 0 mm 2 m/S 752 mmHg 78%
    23:00 +7°C° 0 mm 2 m/S 752 mmHg 78%

    15 Dezember, Freitag

    Zeit Temperatur Niederschläge Wind Luftdruck Luftfeuchtigkeit
    00:00 +7°C° 0 mm 2 m/S 752 mmHg 80%
    01:00 +7°C° 0 mm 2 m/S 752 mmHg 81%
    02:00 +7°C° 0 mm 2 m/S 752 mmHg 83%
    03:00 +7°C° 0 mm 3 m/S 752 mmHg 85%
    04:00 +5°C° 0 mm 3 m/S 751 mmHg 87%
    05:00 +5°C° 0 mm 3 m/S 751 mmHg 90%
    06:00 +5°C° 0 mm 3 m/S 751 mmHg 91%
    07:00 +5°C° 0 mm 3 m/S 751 mmHg 92%
    08:00 +5°C° 0 mm 3 m/S 752 mmHg 93%
    09:00 +8°C° 0 mm 3 m/S 752 mmHg 88%
    10:00 +9°C° 0 mm 3 m/S 752 mmHg 83%
    11:00 +11°C° 0 mm 4 m/S 752 mmHg 78%
    12:00 +11°C° 0 mm 4 m/S 751 mmHg 75%
    13:00 +12°C° 0 mm 4 m/S 751 mmHg 71%
    14:00 +13°C° 0 mm 4 m/S 750 mmHg 67%
    15:00 +12°C° 0 mm 4 m/S 750 mmHg 71%
    16:00 +11°C° 0 mm 4 m/S 750 mmHg 76%
    17:00 +10°C° 0 mm 4 m/S 750 mmHg 80%
    18:00 +9°C° 0 mm 5 m/S 750 mmHg 82%
    19:00 +9°C° 0 mm 5 m/S 750 mmHg 84%
    20:00 +9°C° 0 mm 6 m/S 750 mmHg 86%
    21:00 +9°C° 0 mm 6 m/S 749 mmHg 88%
    22:00 +9°C° 0 mm 6 m/S 749 mmHg 89%
    23:00 +9°C° 0 mm 6 m/S 749 mmHg 91%

    16 Dezember, Samstag

    Zeit Temperatur Niederschläge Wind Luftdruck Luftfeuchtigkeit
    00:00 +9°C° 0 mm 6 m/S 749 mmHg 90%
    01:00 +9°C° 0 mm 7 m/S 749 mmHg 90%
    02:00 +9°C° 0 mm 7 m/S 748 mmHg 89%
    03:00 +9°C° 0 mm 7 m/S 748 mmHg 89%
    04:00 +9°C° 0 mm 7 m/S 748 mmHg 88%
    05:00 +9°C° 0 mm 7 m/S 748 mmHg 88%
    06:00 +9°C° 0 mm 7 m/S 748 mmHg 88%
    07:00 +9°C° 0 mm 7 m/S 748 mmHg 88%
    08:00 +10°C° 0 mm 7 m/S 748 mmHg 88%
    09:00 +11°C° 0 mm 8 m/S 748 mmHg 83%
    10:00 +12°C° 0 mm 8 m/S 748 mmHg 77%
    11:00 +13°C° 0 mm 9 m/S 748 mmHg 72%
    12:00 +15°C° 0 mm 9 m/S 747 mmHg 69%
    13:00 +15°C° 0 mm 9 m/S 747 mmHg 67%
    14:00 +16°C° 0 mm 9 m/S 746 mmHg 64%
    15:00 +15°C° 0 mm 8 m/S 747 mmHg 66%
    16:00 +13°C° 0 mm 8 m/S 747 mmHg 69%
    17:00 +13°C° 0 mm 8 m/S 747 mmHg 71%
    18:00 +13°C° 0 mm 8 m/S 747 mmHg 73%
    19:00 +12°C° 0 mm 8 m/S 747 mmHg 75%
    20:00 +12°C° 0 mm 8 m/S 747 mmHg 77%
    21:00 +12°C° 0 mm 8 m/S 747 mmHg 78%
    22:00 +12°C° 0 mm 8 m/S 747 mmHg 79%
    23:00 +12°C° 0 mm 9 m/S 747 mmHg 81%
    Mehr zeigen